OneWeb SL0504

operational
NORAD ID: 54122 Int'l Des: 2022-138 Owner: ONEWEBN Country: UK Constellation: oneweb
LEOCIRCULARPOLARONEWEB_TYPE

OneWeb SL0504について

説明を読み込み中...

リアルタイム位置

3D地球を読み込み中...

次回通過

高度履歴

Altitude vs Time

uPlot chart will show altitude changes over time

軌道要素

1 54122U 22138K 25308.48311421 -.00000020 00000-0 -81644-4 0 9993
2 54122 87.9238 349.6704 0001848 106.3161 253.8176 13.19726163147198
Epoch: Nov 4, 2025 • Age: 12 hours

現在のステータス

高度 1213.9 km
速度 7.25 km/s
衛星直下点 -72.12°S, 60.83°W
打ち上げ日 Oct 22, 2022
運用期間 3 years
タイプ internet

技術仕様

分類 Payload
質量 148.00 kg
乾燥質量 140.00 kg
総質量 148.00 kg
長さ 1.30 m
直径 1.00 m
スパン 5.00 m
形状 Trapezoid+2 pan
製造者 ONEWUS
バスタイプ ARROW
フェーズステータス In Orbit
所有者/国 ONEWEBN/UK

大規模コンステレーション

Loading constellations...